Elkins, WV

8:47 AM EST on February 26, 2017 (GMT -0500)
Elkins-Randolph County

Weather History for KEKN - April, 2013

Change the Weather History Date:

Sunday, April 7, 2013

  Actual Average Record
Temperature  
Mean Temperature 60 °F 47 °F  
Max Temperature 72 °F 60 °F 85 °F (2010)
Min Temperature 47 °F 34 °F 13 °F (1950)
Degree Days  
Heating Degree Days 5 18  
Month to date heating degree days 165 133  
Since 1 July heating degree days 5339 5234  
Cooling Degree Days 0 0  
Month to date cooling degree days 0 0  
Year to date cooling degree days 0 0  
Growing Degree Days 9 (Base 50)    
Moisture  
Dew Point 32 °F    
Average Humidity 49    
Maximum Humidity 71    
Minimum Humidity 26    
Precipitation  
Precipitation T in 0.13 in 1.14 in (2003)
Month to date precipitation 0.15 0.89  
Year to date precipitation 10.00 11.18  
Snow  
Snow 0.00 in - - ()
Month to date snowfall 0.0  
Since 1 September snowfall 77.5  
Snow Depth 0.00 in    
Sea Level Pressure  
Sea Level Pressure 30.05 in    
Wind  
Wind Speed 9 mph (SSW)    
Max Wind Speed 22 mph    
Max Gust Speed 31 mph    
Visibility 10 miles    
Events Rain    
T = Trace of Precipitation, MM = Missing Value Source: NWS Daily Summary

Daily Weather History Graph

Daily Weather History Graph

Search for Another Location

Airport or City:

Trip Planner

Search our weather history database for the weather conditions in past years. The results will help you decide how hot, cold, wet, or windy it might be!

Date:

Astronomy

Apr. 07, 2013 Rise Set
Actual Time 6:54 AM EDT 7:49 PM EDT
Civil Twilight 6:27 AM EDT 8:16 PM EDT
Nautical Twilight 5:55 AM EDT 8:48 PM EDT
Astronomical Twilight 5:21 AM EDT 9:21 PM EDT
Moon 5:09 AM EDT (4/7) 5:20 PM EDT (4/7)
Length of Visible Light 13h 48m
Length of Day
12h 54m
Waning Crescent, 8% of the Moon is Illuminated
Apr 7
Waning Crescent
Apr 10
New
Apr 18
First Quarter
Apr 25
Full
May 2
Last Quarter

Hourly Weather History & Observations

Time (EDT) Temp. Dew Point Humidity Pressure Visibility Wind Dir Wind Speed Gust Speed Precip Events Conditions
12:51 AM 52.0 °F 21.9 °F 31% 30.12 in 10.0 mi SSE 11.5 mph 18.4 mph N/A   Clear
1:51 AM 52.0 °F 23.0 °F 32% 30.10 in 10.0 mi SSE 11.5 mph - N/A   Clear
2:51 AM 51.1 °F 23.0 °F 33% 30.10 in 10.0 mi South 10.4 mph - N/A   Clear
3:51 AM 50.0 °F 24.1 °F 36% 30.08 in 10.0 mi South 6.9 mph - N/A   Clear
4:51 AM 48.9 °F 25.0 °F 39% 30.08 in 10.0 mi SSE 5.8 mph - N/A   Clear
5:51 AM 48.9 °F 25.0 °F 39% 30.07 in 10.0 mi Variable 3.5 mph - N/A   Clear
6:51 AM 48.9 °F 26.1 °F 41% 30.08 in 10.0 mi South 6.9 mph - N/A   Clear
7:51 AM 50.0 °F 27.0 °F 41% 30.09 in 10.0 mi SSE 8.1 mph - N/A   Clear
8:51 AM 54.0 °F 28.0 °F 37% 30.08 in 10.0 mi South 10.4 mph - N/A   Clear
9:51 AM 59.0 °F 30.0 °F 33% 30.06 in 10.0 mi South 15.0 mph 20.7 mph N/A   Clear
10:51 AM 64.9 °F 34.0 °F 32% 30.06 in 10.0 mi SSW 16.1 mph 23.0 mph N/A   Clear
11:51 AM 64.9 °F 34.0 °F 32% 30.05 in 10.0 mi SW 15.0 mph 26.5 mph N/A   Partly Cloudy
12:51 PM 68.0 °F 34.0 °F 28% 30.02 in 10.0 mi SW 17.3 mph 27.6 mph N/A   Clear
1:51 PM 69.1 °F 34.0 °F 27% 30.00 in 10.0 mi SW 15.0 mph 28.8 mph N/A   Scattered Clouds
2:51 PM 71.1 °F 35.1 °F 27% 29.99 in 10.0 mi SW 20.7 mph 25.3 mph N/A   Scattered Clouds
3:51 PM 70.0 °F 36.0 °F 29% 29.97 in 10.0 mi West 15.0 mph 21.9 mph N/A   Mostly Cloudy
4:51 PM 69.1 °F 36.0 °F 30% 29.99 in 10.0 mi WSW 11.5 mph 21.9 mph N/A   Overcast
5:51 PM 68.0 °F 36.0 °F 31% 30.00 in 10.0 mi WSW 8.1 mph - N/A   Overcast
6:51 PM 66.9 °F 37.0 °F 33% 30.01 in 10.0 mi West 13.8 mph 18.4 mph N/A   Mostly Cloudy
7:51 PM 64.9 °F 37.9 °F 37% 30.02 in 10.0 mi WSW 6.9 mph - N/A   Mostly Cloudy
8:51 PM 62.1 °F 39.9 °F 44% 30.03 in 10.0 mi SW 9.2 mph - 0.00 in Rain Light Rain
9:51 PM 55.0 °F 39.0 °F 55% 30.05 in 10.0 mi Calm Calm - 0.00 in   Mostly Cloudy
10:51 PM 54.0 °F 41.0 °F 62% 30.05 in 10.0 mi Calm Calm - N/A   Overcast
11:51 PM 52.0 °F 42.1 °F 69% 30.05 in 10.0 mi Calm Calm - N/A   Overcast